Terug naar catalogus

STARLINK-37395

ActiefCommunicatieVLEO
NORAD 69148·PAYLOAD·🇺🇸 United States

Gelanceerd May 21, 2026 vanaf Cape Canaveral Space Force Station

Loading…

Volgende Passages (komende 24 uur)

TLE

VersSource: CelesTrak SupGP

Epoch: Sep 15, 2026, 03:22 UTC

1 69148C 26111A   26258.14076389 -.00022979  00000+0 -67887-3 0  2587
2 69148  53.1570  90.4061 0001082  94.7287 175.5711 15.34404172    18

Volg STARLINK-37395 in realtime met AllMySat

Download on the App Store